www.pogodaiklimat.ru
ПОГОДА в Паго-Паго
Время
и дата
16:50 27.01
17:50 27.01
18:50 27.01
19:50 27.01
20:50 27.01
21:50 27.01
22:50 27.01
23:50 27.01
00:50 28.01
01:50 28.01
02:50 28.01
03:50 28.01
03:54 28.01
04:13 28.01
04:30 28.01
04:50 28.01
05:50 28.01
06:50 28.01
07:50 28.01
08:50 28.01
09:50 28.01
10:50 28.01
11:50 28.01
12:50 28.01
13:50 28.01
15:50 28.01
16:50 28.01
17:50 28.01
18:50 28.01
19:50 28.01
20:50 28.01
21:50 28.01
22:50 28.01
23:50 28.01
00:50 29.01
01:50 29.01
02:50 29.01
03:50 29.01
04:50 29.01
05:50 29.01
06:50 29.01
07:50 29.01
08:50 29.01
09:50 29.01
10:50 29.01
11:50 29.01
12:50 29.01
13:53 29.01
Ветер
(напр.,м/с)
Видим. Явления Облачность Т
(С)
Тd
(С)
f
(%)
Тe
(С)
Тes
(С)
Комфортность P
(гПа)
Po
(гПа)
Тmin
(С)
Tmax
(С)
R
(мм)
R24
(мм)
S
(см)
нст 2 19 км 8/2 660 m
[Ac Ci]
+28.8 +25.5 82 +42 +46 опасность
перегрева
1007.8 1006.5
нст 3 19 км 8/2 690 m
[Ac Ci]
+28.9 +24.9 79 +41 +43 опасность
перегрева
1008.5 1007.2
нст 2 18 км 8/2 690 m
[Ac Ci]
+28.2 +24.4 80 +40 +40 очень
душно
1008.8 1007.5 +26.7 +28.9
нст 3 16 км 5/2 690 m
[Ac]
+26.9 +24.5 87 +38 +38 очень
душно
1009.7 1008.2
нст 3 6 км слабый ливневый дождь 10/10 480 m
[Cb]
+26.9 +24.9 89 1010.2
штиль 0 16 км 8/8 570 m
[Ac]
+26.1 +25.1 94 +37 +37 очень
душно
1010.8 1009.5 2.3
нст 2 16 км 2/2 690 м +25.9 +24.8 94 +37 +37 очень
душно
1010.5 1009.2
нст 2 16 км 2/2 690 м +26.3 +24.9 92 +38 +38 очень
душно
1009.7 1008.5
штиль 0 16 км 2/2 690 м +25.9 +24.7 93 +37 +37 очень
душно
1009.1 1007.8 +25.9 +28.2 2.3 8.1
нст 2 16 км слабый ливневый дождь 2/2 510 m
[Cb]
+26.5 +24.8 90 +38 +38 очень
душно
1008.6 1007.2
штиль 0 16 км 2/2 510 м +25.3 +24.4 95 +35 +35 очень
душно
1008.3 1006.8
С 4 16 км слабый ливневый дождь 10/8 510 m
[Ac Cb]
+24.7 +24.2 97 1009.0 1.8
нст 3 16 км гроза, слабый ливневый дождь 10/8 390 m
[Ac Cb]
+25.0 +24.0 94 +34 +34 очень
душно
1007.5
нст 3 16 км ливневый дождь 10/8 390 m
[Ac Cb]
+24.0 +24.0 100 +33 +33 очень
душно
нст 3 16 км гроза, ливневый дождь 10/8 390 m
[Ac Cb]
+24.0 +24.0 100 +33 +33 очень
душно
1007.5
штиль 0 16 км слабый ливневый дождь 10/8 390 m
[Ac Cb]
+24.4 +24.1 98 +34 +34 очень
душно
1008.8 1007.5
нст 1 16 км 8/5 390 m
[Ac Cb]
+24.2 +24.0 99 +33 +33 очень
душно
1009.3 1008.2
нст 3 19 км 8/5 570 m
[Ac]
+24.4 +24.2 99 +34 +34 очень
душно
1010.3 1008.8 +24.2 +26.5 11.2
штиль 0 19 км 8/5 570 m
[Ac]
+26.1 +25.6 97 +38 +39 очень
душно
1010.5 1009.2
нст 3 19 км 8/5 570 m
[Ac]
+27.9 +26.2 90 +42 +43 опасность
перегрева
1010.5 1009.2
нст 2 19 км 8/5 570 m
[Ac]
+28.9 +25.2 80 +42 +45 опасность
перегрева
1010.2 1008.8
нст 3 19 км 8/5 630 m
[Ac]
+29.9 +25.0 75 +43 +47 опасность
перегрева
1009.8 1008.5
нст 3 19 км 8/5 630 m
[Ac]
+29.7 +25.1 76 +43 +48 опасность
перегрева
1009.5 1008.2
нст 3 19 км 5/5 630 m
[Ac]
+30.0 +25.3 76 +44 +53 опасность
перегрева
1008.8 1007.5 +24.4 +30.0
нст 3 19 км 5/5 570 m
[Ac]
+28.0 +25.3 85 +41 +50 опасность
перегрева
1008.1 1006.8
нст 3 19 км 5/5 510 m
[Ac]
+28.4 +25.1 82 +41 +47 опасность
перегрева
1008.3 1007.2 0.3
нст 1 19 км 5/5 510 m
[Ac]
+28.2 +25.2 84 +41 +46 опасность
перегрева
1008.5 1007.2
нст 2 19 км 5/5 660 м +28.8 +25.0 80 +42 +43 опасность
перегрева
1009.0 1007.5
нст 2 19 км 5/2 690 m
[Ac Ci]
+27.8 +24.8 84 +40 +40 очень
душно
1009.7 1008.2 +27.8 +30.0 0.8
нст 2 16 км 2/2 690 м +27.0 +24.7 87 +38 +38 очень
душно
1010.0 1008.5
штиль 0 16 км 2/2 690 м +26.5 +24.9 91 +38 +38 очень
душно
1010.7 1009.2
штиль 0 16 км ясно +26.2 +24.6 91 +37 +37 очень
душно
1011.3 1009.9
штиль 0 16 км 2/2 690 м +25.6 +24.5 94 +36 +36 очень
душно
1011.3 1010.2
штиль 0 16 км 2/2 690 м +25.0 +24.3 96 +35 +35 очень
душно
1009.8 1008.5
нст 2 16 км 2/2 690 м +25.1 +24.4 96 +35 +35 очень
душно
1009.5 1008.2 +25.0 +27.8 11.9
нст 2 16 км 2/2 750 м +25.0 +24.3 96 +35 +35 очень
душно
1009.5 1008.2
нст 2 16 км 5/2 750 m
[Ac]
+25.0 +24.3 96 +35 +35 очень
душно
1009.3 1008.2
нст 2 16 км 5/2 750 m
[Ac]
+24.6 +24.1 97 +34 +34 очень
душно
1008.0 1006.5
штиль 0 16 км 8/5 630 m
[Ac]
+25.6 +24.7 95 1008.5
нст 1 16 км 5/2 630 m
[Ac]
+25.4 +24.5 95 +36 +36 очень
душно
1008.6 1007.2
нст 1 19 км 8/2 630 m
[Ac]
+26.1 +24.9 93 +37 +37 очень
душно
1008.8 1007.5 +24.9 +26.2 0.5
нст 2 19 км 5/5 630 m
[Ac]
+29.0 +25.8 83 +43 +44 опасность
перегрева
1010.0 1008.5
СВ 4 19 км 5/2 660 m
[Ci]
+29.9 +25.2 76 +43 +46 опасность
перегрева
1009.5 1008.2
СВ 4 19 км 5/5 660 м +31.0 +25.9 74 +46 +49 опасность
перегрева
1009.3 1007.8
СВ 5 19 км 5/2 510 m
[Ac]
+31.7 +25.9 71 +47 +52 опасность
перегрева
1009.0 1007.5
В 5 19 км 5/2 540 m
[Ci]
+31.7 +25.7 71 +47 +54 опасность
перегрева
1008.5 1007.2
СВ 4 19 км 8/2 540 m
[Ac Ci]
+32.0 +25.7 69 +47 +54 опасность
перегрева
1008.0 1006.5 +26.1 +32.0
СВ 4 19 км 8/2 540 m
[Ac Ci]
+31.4 +25.4 71 +46 +53 опасность
перегрева
1007.6 1006.1
Местоположение метеостанции Pago Pago: широта -14.3310 долгота -170.7105 высота над уровнем моря 3 м.
В архиве по умолчанию представлена погода в Паго-Паго за последние 1-2 суток. Обновление информации о фактической погоде в базе происходит ежечасно! Архивные данные за месяц целиком и за предыдущие месяцы Вы можете получить, выбрав интересующий диапазон дат из раскрывающегося списка и нажав кнопку "Ввод!".
Внимание! Архив погоды МЕТАР в базе сайта по станциям, не включенным в климатический монитор, хранится не более 60 дней. Нет смысла пытаться выбрать более раннюю дату.
*Определитесь, кто Вы:
Внимание! Время в таблицах - местное (без учета летнего времени). Для получения всемирного времени необходимо вычесть поправку, которая равна ч.
Смотрите также архив погоды в соседних городах и на ближайших метеорологических станциях:
Партнеры нашего сайта:      
Пояснения к столбцам:
  • Ветер - указаны скорость ветра в м/с - средняя за 10 мин, порывы в срок и между сроками (в фигурных скобках) и направление, откуда дует ветер: С - северный,
  • СВ - северо-восточный, В - восточный, ЮВ - юго-восточный, Ю - южный, ЮЗ - юго-западный, З - западный, СЗ - северо-западный.
  • Видимость - горизонтальная дальность видимости в метрах или километрах. При видимости от 1 до 10 км при отсутствии осадков обычно наблюдается дымка, при ухудшении видимости до 1 км и менее - туман. В сухую погоду видимость может ухудшаться дымом, пылью или мглою.
  • Явления - указаны атмосферные явления, наблюдавшиеся в срок или в последний час перед сроком; фигурными скобками обозначены явления, наблюдавшиеся между сроками (за 1-3 часа до срока); квадратными скобками обозначены град или гололедные отложения с указанием их диаметра в мм.
  • Облачность - указаны через наклонную черту общая и нижняя облачность в баллах и высота нижней границы облаков в метрах; квадратными скобками обозначены формы облаков: Ci - перистые, Cs - перисто-слоистые, Cc - перисто-кучевые, Ac - высококучевые, As - высокослоистые, Sc - слоисто-кучевые, Ns - слоисто-дождевые, Cu - кучевые, Cb - кучево-дождевые. Подробнее классификацию облаков см. в Атласе облаков (PDF).
  • T - Температура воздуха - температура, измеренная на высоте 2 м над землей.
  • Td - Температура точки росы - температура, при понижении до которой содержащийся в воздухе водяной пар достигнет насыщения.
  • f - Относительная влажность воздуха - влажноcть воздуха, измеренная на высоте 2 м над землей.
  • Te - Эффективная температура - температура, которую ощущает одетый по сезону человек в тени. Характеристика душности погоды. При расчете учитывается влияние влажности воздуха и скорости ветра на теплоощущения человека.
  • Tes - Эффективная температура на солнце - температура, которую ощущает человек, с поправкой на солнечный нагрев. Характеристика знойности погоды. Зависит от высоты солнца над горизонтом, облачности и скорости ветра. Ночью, в пасмурную погоду, а также при ветре 12 м/с и более поправка равна нулю.
  • P - Атмосферное давление - приведенное к уровню моря атмосферное давление.
  • Po - Атмосферное давление - измеренное на уровне метеостанции атмосферное давление.
  • Tmin - Минимальная температура - минимум температуры воздуха на высоте 2 м над землей.
  • Tmax - Максимальная температура - максимум температуры воздуха на высоте 2 м над землей.
  • R - Количество осадков - Количество выпавших осадков за период времени, мм. При наведении курсора мыши на число - период времени, за который выпало указанное количество осадков.
  • R24 - Количество осадков - Количество выпавших осадков за 24 часа, мм.
  • S - Снежный покров - Высота снежного покрова, см. При наведении курсора мыши на число - состояние снежного покрова и степень покрытия местности в баллах.